WA6TJQ Weather Reports


time (UTC)temp
C
wind
direction
speed
KPH
gust
KPH
rain 1hr
cm
rain 24hr
cm
rain mn
cm
humidity
%
barometer
mb
20260505100417 3 160 0.0 8.0 0.15 0.20 0.15 87 1006.2
20260505095917 3 161 1.6 8.0 0.15 0.20 0.15 88 1006.2
20260505095417 3 163 0.0 8.0 0.15 0.20 0.15 88 1006.3
20260505094917 3 163 1.6 8.0 0.15 0.20 0.15 88 1006.3
20260505094417 3 164 3.2 8.0 0.15 0.20 0.15 88 1006.3
20260505093917 3 164 1.6 8.0 0.15 0.20 0.15 88 1006.3
20260505093417 3 164 1.6 8.0 0.15 0.20 0.15 87 1006.5
20260505092917 3 164 0.0 8.0 0.15 0.20 0.15 88 1006.4
20260505092417 3 164 0.0 8.0 0.15 0.20 0.15 88 1006.5
20260505091917 3 164 1.6 8.0 0.15 0.20 0.15 88 1006.5
20260505091417 3 163 0.0 8.0 0.15 0.20 0.15 88 1006.7
20260505090917 3 183 0.0 4.8 0.15 0.20 0.15 88 1006.6
20260505090417 3 186 0.0 0.0 0.15 0.20 0.15 88 1006.7
20260505085917 3 186 0.0 8.0 0.18 0.25 0.15 87 1006.8
20260505085417 3 173 3.2 8.0 0.18 0.25 0.15 88 1007.0
20260505084917 3 163 0.0 8.0 0.18 0.25 0.15 88 1006.9
20260505084417 3 162 0.0 8.0 0.18 0.25 0.15 88 1007.0
20260505083917 3 163 0.0 8.0 0.18 0.25 0.15 88 1007.0
20260505083417 3 163 0.0 8.0 0.18 0.25 0.15 88 1007.1
20260505082917 3 162 0.0 8.0 0.18 0.25 0.15 88 1007.0
20260505082417 3 162 0.0 8.0 0.18 0.25 0.15 88 1007.0
20260505081917 3 162 0.0 8.0 0.18 0.25 0.15 88 1007.0
20260505081417 3 162 3.2 8.0 0.18 0.25 0.15 88 1007.2
20260505080917 3 162 0.0 8.0 0.18 0.25 0.15 88 1007.2
20260505080417 3 162 0.0 8.0 0.15 0.23 0.13 88 1007.4
20260505075917 3 162 3.2 8.0 0.15 0.23 0.13 88 1007.3
20260505075417 3 162 0.0 8.0 0.15 0.23 0.13 88 1007.2
20260505074917 3 162 0.0 8.0 0.15 0.23 0.13 87 1007.4
20260505074417 3 162 0.0 8.0 0.13 0.20 0.10 88 1007.4
20260505073917 3 162 0.0 8.0 0.10 0.18 0.08 88 1007.3
20260505073417 3 162 0.0 8.0 0.10 0.18 0.08 88 1007.4
20260505072917 3 162 0.0 8.0 0.10 0.18 0.08 88 1007.5
20260505072417 3 131 3.2 8.0 0.08 0.15 0.05 88 1007.5
20260505071917 3 131 1.6 8.0 0.05 0.13 0.03 88 1007.5
20260505071417 3 131 0.0 8.0 0.05 0.13 0.03 88 1007.5
20260505070916 3 181 0.0 6.4 0.05 0.13 0.03 88 1007.4
20260505070416 3 161 0.0 4.8 0.03 0.10 0.00 88 1007.4
20260505065916 3 160 0.0 9.7 0.03 0.15 0.10 88 1007.5
20260505065416 3 166 0.0 9.7 0.03 0.15 0.10 88 1007.7
20260505064916 3 168 0.0 9.7 0.03 0.15 0.10 88 1007.6
20260505064416 3 164 3.2 9.7 0.03 0.15 0.10 88 1007.7
20260505063916 3 241 0.0 9.7 0.00 0.13 0.08 87 1007.6
20260505063416 3 227 1.6 9.7 0.00 0.13 0.08 88 1007.7
20260505062916 3 227 0.0 9.7 0.00 0.13 0.08 88 1007.7
20260505062416 3 227 0.0 9.7 0.00 0.13 0.08 88 1007.7
20260505061916 3 227 0.0 9.7 0.00 0.13 0.08 88 1007.7
20260505061416 3 227 1.6 9.7 0.00 0.13 0.08 88 1007.8
20260505060916 3 227 0.0 9.7 0.00 0.13 0.08 88 1007.7
20260505060416 3 167 0.0 9.7 0.00 0.13 0.08 88 1007.8
20260505055916 3 134 1.6 9.7 0.00 0.13 0.08 88 1007.7
20260505055415 3 134 1.6 9.7 0.00 0.13 0.08 88 1007.8
20260505054915 3 133 0.0 9.7 0.00 0.13 0.08 88 1007.9
20260505054415 3 133 0.0 9.7 0.00 0.13 0.08 87 1007.8
20260505053915 3 146 1.6 9.7 0.00 0.13 0.08 88 1007.8
20260505053415 3 190 1.6 9.7 0.00 0.13 0.08 88 1007.8
20260505052915 3 165 1.6 9.7 0.00 0.13 0.08 88 1007.8
20260505052415 3 212 0.0 9.7 0.00 0.13 0.08 87 1007.7
20260505051915 3 153 3.2 9.7 0.00 0.13 0.08 87 1007.8
20260505051415 3 155 1.6 9.7 0.00 0.13 0.08 88 1007.9
20260505050915 3 299 0.0 4.8 0.00 0.13 0.08 88 1007.9
20260505050415 3 325 0.0 4.8 0.00 0.13 0.08 88 1008.0
20260505041416 3 234 1.6 14.5 0.00 0.15 0.08 88 1007.8
20260505040914 3 159 1.6 14.5 0.00 0.15 0.08 88 1007.8
20260505040414 3 231 0.0 14.5 0.00 0.15 0.08 88 1007.7
20260505035914 3 198 1.6 14.5 0.00 0.15 0.08 88 1007.7
20260505035414 3 194 3.2 14.5 0.00 0.15 0.08 88 1007.7
20260505034914 3 244 3.2 14.5 0.00 0.15 0.08 88 1007.8
20260505034414 3 217 3.2 14.5 0.00 0.15 0.08 88 1007.8
20260505033914 3 251 3.2 8.0 0.00 0.15 0.08 87 1007.8
20260505033414 3 169 6.4 8.0 0.00 0.15 0.08 88 1007.6
20260505032914 3 204 0.0 6.4 0.00 0.15 0.08 87 1007.7
20260505032414 3 206 1.6 6.4 0.00 0.15 0.08 87 1007.7
20260505031914 3 184 3.2 4.8 0.00 0.15 0.08 88 1007.8
20260505031414 3 124 0.0 4.8 0.00 0.15 0.08 87 1007.9
20260505030914 3 192 0.0 4.8 0.00 0.15 0.08 87 1007.7
20260505030414 3 227 4.8 4.8 0.00 0.15 0.08 87 1007.6
20260505025914 3 231 0.0 11.3 0.00 0.15 0.08 87 1007.5
20260505025414 3 233 0.0 11.3 0.00 0.15 0.08 87 1007.7
20260505024914 3 162 1.6 11.3 0.00 0.15 0.08 87 1007.7
20260505024414 3 293 1.6 11.3 0.00 0.15 0.08 87 1007.7
20260505023914 3 239 1.6 11.3 0.00 0.15 0.08 87 1007.7
20260505023414 3 155 0.0 11.3 0.00 0.15 0.08 87 1007.7
20260505022914 3 243 0.0 11.3 0.00 0.15 0.08 86 1007.7
20260505022414 3 217 0.0 11.3 0.00 0.15 0.08 87 1007.8
20260505021914 4 208 1.6 11.3 0.00 0.15 0.08 87 1007.7
20260505021414 4 194 3.2 11.3 0.00 0.15 0.08 86 1007.6
20260505020914 4 157 4.8 11.3 0.00 0.15 0.08 86 1007.7
20260505020414 4 270 1.6 11.3 0.00 0.15 0.08 86 1007.7
20260505015914 4 200 0.0 11.3 0.00 0.15 0.08 86 1007.6
20260505015413 4 169 1.6 11.3 0.00 0.15 0.08 86 1007.8
20260505014913 4 266 0.0 11.3 0.00 0.15 0.08 86 1007.6
20260505014414 4 149 1.6 11.3 0.00 0.15 0.08 86 1007.7
20260505013913 4 218 0.0 9.7 0.00 0.15 0.08 86 1007.7
20260505013413 4 201 0.0 9.7 0.00 0.15 0.08 86 1007.8
20260505012913 4 179 0.0 9.7 0.00 0.15 0.08 86 1007.7
20260505012413 4 172 3.2 9.7 0.00 0.15 0.08 86 1007.8
20260505011913 4 198 0.0 6.4 0.00 0.15 0.08 86 1007.8
20260505011413 4 206 3.2 6.4 0.00 0.15 0.08 85 1008.1
20260505010913 4 267 0.0 6.4 0.00 0.15 0.08 85 1007.8
20260505010413 4 302 0.0 6.4 0.00 0.15 0.08 85 1007.8
20260505005913 4 118 9.7 16.1 0.00 0.15 0.08 85 1007.8
20260505005413 4 139 0.0 16.1 0.00 0.15 0.08 85 1007.9
20260505004913 4 93 0.0 16.1 0.00 0.15 0.08 85 1007.8
20260505004413 4 170 1.6 16.1 0.00 0.15 0.08 85 1007.9
20260505003913 5 320 1.6 16.1 0.00 0.15 0.08 85 1008.0
20260505003413 5 173 1.6 16.1 0.00 0.15 0.08 84 1008.0
20260505002913 5 233 4.8 16.1 0.00 0.15 0.08 84 1007.9
20260505002413 5 138 0.0 16.1 0.00 0.15 0.08 84 1008.0
20260505001913 5 298 3.2 14.5 0.00 0.15 0.08 84 1007.9
20260505001413 5 200 1.6 14.5 0.00 0.15 0.08 84 1008.0
20260505000913 5 222 3.2 14.5 0.00 0.15 0.08 83 1007.9
20260505000413 5 153 0.0 9.7 0.00 0.15 0.08 82 1007.8
20260504235912 5 159 3.2 9.7 0.00 0.15 0.08 81 1007.9
20260504235412 5 163 1.6 9.7 0.00 0.15 0.08 80 1008.0
20260504234912 5 252 0.0 9.7 0.00 0.15 0.08 81 1007.9
20260504234412 5 174 1.6 9.7 0.00 0.15 0.08 81 1007.9
20260504233912 5 213 0.0 9.7 0.00 0.15 0.08 81 1008.0
20260504233412 5 244 0.0 9.7 0.00 0.15 0.08 82 1008.1
20260504232912 5 174 0.0 9.7 0.00 0.15 0.08 82 1008.0
20260504232412 5 239 0.0 9.7 0.00 0.15 0.08 82 1007.9
20260504231912 5 137 3.2 9.7 0.00 0.15 0.08 81 1007.9
20260504231412 5 138 3.2 9.7 0.00 0.15 0.08 81 1007.9
20260504230912 5 109 4.8 9.7 0.00 0.15 0.08 82 1008.0
20260504230412 5 160 8.0 8.0 0.00 0.15 0.08 82 1008.0
20260504225912 5 243 0.0 14.5 0.00 0.15 0.08 81 1008.0
20260504225412 5 201 3.2 14.5 0.00 0.15 0.08 81 1008.0
20260504224912 5 202 3.2 14.5 0.00 0.15 0.08 81 1008.1
20260504224412 5 133 3.2 14.5 0.00 0.15 0.08 80 1008.1
20260504223912 5 132 3.2 14.5 0.00 0.15 0.08 80 1008.1
20260504223412 5 166 4.8 14.5 0.00 0.15 0.08 80 1008.1
20260504222912 5 166 0.0 14.5 0.00 0.15 0.08 79 1008.1
20260504222412 5 162 0.0 14.5 0.00 0.15 0.08 79 1008.1
20260504221912 5 161 3.2 14.5 0.00 0.15 0.08 78 1008.1
20260504221412 5 178 0.0 14.5 0.00 0.15 0.08 77 1008.2
20260504220912 5 191 0.0 14.5 0.00 0.15 0.08 78 1008.1
20260504220411 5 153 1.6 14.5 0.00 0.15 0.08 78 1008.1
20260504215911 5 204 3.2 14.5 0.00 0.15 0.08 76 1008.1
20260504215411 5 248 4.8 14.5 0.00 0.15 0.08 74 1008.0
20260504214911 6 150 3.2 14.5 0.00 0.15 0.08 74 1008.4
20260504214411 6 144 3.2 14.5 0.00 0.15 0.08 74 1008.3
20260504213911 6 232 3.2 14.5 0.00 0.15 0.08 76 1008.4
20260504213411 6 137 3.2 14.5 0.00 0.15 0.08 75 1008.4
20260504212911 6 216 4.8 14.5 0.00 0.15 0.08 76 1008.3
20260504212411 6 163 4.8 14.5 0.00 0.15 0.08 79 1008.4
20260504211911 6 177 0.0 14.5 0.00 0.15 0.08 77 1008.5
20260504211411 6 161 1.6 14.5 0.00 0.15 0.08 78 1008.5
20260504210911 6 188 1.6 11.3 0.00 0.15 0.08 80 1008.5
20260504210411 5 118 0.0 11.3 0.00 0.15 0.08 79 1008.4
20260504205911 5 144 0.0 24.1 0.00 0.15 0.08 80 1008.6
20260504205411 5 151 4.8 24.1 0.00 0.15 0.08 82 1008.6
20260504204911 5 133 6.4 24.1 0.00 0.15 0.08 84 1008.4
20260504204411 5 187 1.6 24.1 0.00 0.15 0.08 84 1008.5
20260504203911 4 123 4.8 24.1 0.00 0.15 0.08 85 1008.5
20260504203411 4 186 1.6 24.1 0.00 0.15 0.08 85 1008.6
20260504202911 4 152 0.0 24.1 0.00 0.15 0.08 85 1008.6
20260504202411 4 131 4.8 24.1 0.00 0.15 0.08 86 1008.4
20260504201910 3 168 4.8 24.1 0.00 0.15 0.08 85 1008.3
20260504201411 3 121 6.4 24.1 0.00 0.15 0.08 86 1008.4
20260504200911 3 125 6.4 24.1 0.00 0.15 0.08 86 1008.5
20260504200410 3 123 3.2 24.1 0.00 0.15 0.08 86 1008.6
20260504195910 3 114 4.8 24.1 0.00 0.15 0.08 85 1008.4
20260504195410 3 115 4.8 24.1 0.00 0.15 0.08 86 1008.4
20260504194910 3 162 3.2 24.1 0.00 0.15 0.08 86 1008.5
20260504194410 3 160 8.0 24.1 0.00 0.15 0.08 86 1008.5
20260504193910 3 115 4.8 24.1 0.00 0.15 0.08 86 1008.3
20260504193410 3 126 8.0 24.1 0.00 0.15 0.08 86 1008.3
20260504192910 3 206 4.8 24.1 0.00 0.15 0.08 86 1008.3
20260504192410 3 154 4.8 24.1 0.00 0.15 0.08 86 1008.2
20260504191910 3 137 4.8 24.1 0.00 0.15 0.08 87 1008.4
20260504191410 3 149 4.8 14.5 0.00 0.15 0.08 87 1008.6
20260504190910 3 118 4.8 12.9 0.00 0.15 0.08 87 1008.4
20260504190410 3 142 6.4 9.7 0.00 0.15 0.08 87 1008.4
20260504185910 3 136 8.0 16.1 0.00 0.15 0.08 87 1008.5
20260504185410 3 133 3.2 16.1 0.00 0.15 0.08 87 1008.5
20260504184910 3 146 4.8 16.1 0.00 0.15 0.08 88 1008.5
20260504184410 3 133 4.8 16.1 0.00 0.15 0.08 87 1008.5
20260504183910 3 127 4.8 16.1 0.00 0.15 0.08 88 1008.5
20260504183410 3 161 4.8 16.1 0.00 0.15 0.08 88 1008.4
20260504182909 3 133 3.2 16.1 0.00 0.15 0.08 88 1008.4
20260504182409 3 138 4.8 16.1 0.00 0.15 0.08 88 1008.5
20260504181909 3 100 1.6 16.1 0.00 0.15 0.08 88 1008.4
20260504181409 3 162 3.2 16.1 0.00 0.15 0.08 88 1008.4
20260504180909 2 158 4.8 16.1 0.00 0.15 0.08 87 1008.3
20260504180409 2 151 4.8 16.1 0.00 0.15 0.08 87 1008.3
20260504175909 2 140 6.4 14.5 0.00 0.15 0.08 87 1008.1
20260504175409 2 163 8.0 14.5 0.00 0.15 0.08 87 1008.1
20260504174909 2 123 4.8 14.5 0.00 0.15 0.08 87 1008.2
20260504174409 2 145 6.4 14.5 0.00 0.15 0.08 88 1008.2
20260504173909 2 148 6.4 14.5 0.00 0.15 0.08 88 1008.0
20260504173409 2 157 3.2 14.5 0.00 0.15 0.08 87 1007.9
20260504172909 2 142 6.4 14.5 0.00 0.15 0.08 87 1007.9
20260504172409 2 134 4.8 14.5 0.00 0.15 0.08 87 1007.9
20260504171909 2 136 4.8 14.5 0.00 0.15 0.08 87 1008.0
20260504171409 2 153 11.3 14.5 0.00 0.15 0.08 87 1008.0
20260504170909 2 132 4.8 14.5 0.00 0.15 0.08 87 1007.7
20260504170408 2 136 1.6 14.5 0.00 0.15 0.08 87 1007.7
20260504160408 2 143 3.2 14.5 0.00 0.15 0.08 87 1007.5
20260504150907 2 156 3.2 8.0 0.00 0.15 0.08 87 1007.5
20260504150407 2 198 0.0 8.0 0.00 0.15 0.08 87 1007.4
20260504140907 2 157 4.8 16.1 0.00 0.15 0.08 87 1007.4
20260504140407 2 156 0.0 16.1 0.00 0.15 0.08 87 1007.4
20260504130406 2 163 1.6 4.8 0.00 0.15 0.08 87 1007.2
20260504110405 2 144 4.8 4.8 0.03 0.15 0.08 87 1007.2